Temperature
14 14 14 14 14 14 13 13 13 13 13 13 12 12 12 12 12 12 12 12 12 12 12 11 11 11 11 11 11 11 11 11 11 11 11 11 11 11 11 11 10 10 10
14 14 14 14 13 13 13 13 13 13 12 12 12 12 12 12 12 12 11 11 11 11 11 11 11 11 11 11 11 11 11 11 10 11 11 11 11 10 10 10 10 10 10
14 14 13 13 13 13 13 13 12 12 12 12 12 12 11 11 11 11 11 11 11 11 11 11 11 11 11 11 11 11 11 10 10 10 10 10 10 10 10 10 10 10 10
13 13 13 13 13 13 12 12 12 12 12 11 11 11 11 11 11 11 11 11 11 11 11 11 11 11 11 10 10 10 10 10 10 10 10 10 10 10 10 10 10 10 10
13 13 13 12 12 12 12 12 12 11 11 11 11 11 11 11 10 10 10 10 10 10 10 10 10 10 10 10 10 10 10 10 10 10 10 10 10 10 10 10 10 10 10
13 12 12 12 12 12 11 11 11 11 11 11 10 10 10 10 10 10 10 10 10 10 10 10 10 10 10 10 10 10 10 9 9 9 9 9 9 9 10 9 9 9 9
12 12 12 12 11 11 11 11 11 11 10 10 10 10 10 10 10 9 9 9 9 9 9 10 9 9 9 9 9 9 9 9 9 9 9 9 9 9 9 9 9 9 9
12 12 12 11 11 11 11 11 10 10 10 10 10 10 10 9 9 9 9 9 9 9 9 9 9 9 9 9 9 9 9 9 9 9 8 9 9 9 9 9 9 9 8
11 11 11 11 11 11 10 10 10 10 10 9 9 9 9 9 9 9 8 8 8 8 8 8 8 8 8 8 8 8 8 8 8 8 8 8 8 8 8 8 8 8 8
11 11 11 11 10 10 10 10 10 10 9 9 9 9 9 9 9 8 8 8 8 8 8 8 8 8 8 8 8 8 8 8 8 8 8 8 8 7 7 7 7 7 7
11 10 10 10 10 10 10 9 9 9 9 9 9 9 9 8 8 8 8 8 8 8 8 8 7 7 7 7 7 7 7 7 7 7 7 7 7 7 7 7 7 7 7
10 10 10 10 10 9 9 9 9 9 9 9 8 8 8 8 8 8 8 7 7 7 7 7 7 7 7 7 7 7 7 7 7 7 6 6 7 7 6 6 6 6 6
10 10 9 9 9 9 9 8 8 8 8 8 8 8 8 8 7 7 7 7 7 7 7 7 6 6 6 6 6 6 6 6 6 6 6 6 6 6 6 6 6 6 6
9 9 9 9 9 8 8 8 8 8 8 7 7 7 7 7 7 7 7 6 6 6 6 6 6 6 6 6 6 6 6 6 5 5 5 5 5 5 5 5 5 5 5
9 9 8 8 8 8 8 7 7 7 7 7 7 7 6 7 7 6 6 6 6 6 6 6 6 5 5 5 5 5 5 5 5 5 5 5 5 4 4 4 4 4 4
9 8 8 8 8 8 7 7 7 7 7 6 6 6 6 6 6 6 6 6 6 5 5 5 5 5 5 5 5 5 5 4 4 4 4 4 4 4 4 4 4 4 4
8 8 8 8 7 7 7 7 7 7 6 6 6 6 6 6 6 6 5 5 5 5 5 5 5 5 4 4 4 4 4 4 4 4 4 4 4 3 3 3 3 3 3
8 8 7 7 7 7 7 6 6 6 6 6 6 6 6 5 5 5 5 5 5 4 4 4 4 4 4 4 4 4 4 4 4 3 3 3 3 3 3 3 3 3 3
7 7 7 7 7 6 6 6 6 6 6 6 6 6 5 5 5 5 4 4 4 4 4 4 4 4 4 4 4 3 3 3 3 3 3 3 3 2 2 2 2 2 2
7 7 6 6 6 6 6 6 5 5 5 5 5 5 5 5 5 4 4 4 4 4 4 4 4 4 4 3 3 3 3 3 3 3 2 2 2 2 2 2 2 2 2
6 6 6 6 5 5 5 5 5 5 5 5 5 5 4 4 4 4 4 4 3 3 3 3 3 3 3 3 3 3 2 2 2 2 2 2 2 1 1 1 1 1 1
6 6 5 5 5 5 5 5 4 4 4 4 4 4 4 4 4 3 3 3 3 3 3 3 3 3 3 2 2 2 2 2 2 2 1 1 1 1 1 1 1 1 1
5 5 5 5 4 4 4 4 4 4 4 4 4 4 3 3 3 3 3 3 3 3 2 2 2 2 2 2 2 2 2 1 1 1 1 1 1 1 1 0 0 0 0
5 5 4 4 4 4 4 3 3 3 3 3 3 3 3 3 3 3 2 2 2 2 2 2 2 2 2 2 2 1 1 1 1 1 1 1 1 0 0 0 0 0 0
4 4 4 4 3 3 3 3 3 3 3 3 2 2 2 2 2 2 2 2 2 2 2 2 1 1 1 1 1 1 1 1 0 0 0 0 0 0 0 -0 -0 -0 -0
4 3 3 3 3 3 3 3 2 2 2 2 2 2 2 2 2 2 1 1 1 1 1 1 1 1 1 1 1 1 1 0 0 0 -0 -0 -0 -0 -0 -0 -0 -0 -0
Wind_Speed
3 3 3 3 3 3 2 2 2 1 1 1 1 1 1 1 1 1 1 1 2 2 1 2 3 2 2 2 2 2 2 3 4 3 2 1 1 1 2 1 1 1 1
3 3 3 3 3 3 3 2 2 2 1 1 1 1 1 1 1 1 2 2 2 2 2 2 3 2 2 2 2 2 2 3 4 3 2 1 2 1 1 1 1 1 1
3 3 3 3 3 4 3 3 2 2 2 1 1 1 2 2 2 2 2 2 2 3 3 3 3 2 3 2 2 3 2 2 3 3 2 1 1 1 0 1 1 1 2
3 3 3 3 4 4 4 3 3 3 2 2 2 2 2 2 2 1 1 2 2 2 3 3 3 3 4 3 3 3 3 2 2 2 2 2 2 1 1 1 1 1 1
3 2 3 3 3 3 3 3 3 2 2 2 2 2 2 1 2 1 2 2 2 2 2 2 2 2 3 3 2 2 3 2 2 2 2 2 2 1 2 2 2 1 2
3 3 2 2 2 2 3 3 2 2 2 1 2 2 2 2 3 3 2 1 1 1 2 3 3 2 3 3 3 3 3 3 4 3 3 3 4 4 3 3 2 1 2
2 3 2 2 2 2 2 2 3 3 3 2 2 2 2 4 3 2 2 1 1 2 2 2 3 3 3 2 3 3 3 3 4 4 4 5 4 4 3 3 4 3 4
2 3 3 3 2 2 2 2 3 3 3 3 3 3 3 4 3 3 3 1 1 2 3 3 3 3 3 2 1 2 3 3 4 3 4 5 5 4 5 5 4 3 2
2 3 4 4 3 3 3 3 3 3 3 3 3 3 3 4 4 3 2 1 2 3 4 3 3 3 5 4 2 2 3 4 4 4 5 5 5 4 3 1 1 2 2
4 4 3 3 3 3 4 3 2 2 3 2 2 2 3 3 4 3 2 1 2 3 3 3 4 5 6 4 3 3 4 5 3 3 3 4 3 2 2 2 3 3 2
3 2 2 2 3 3 2 2 1 2 1 1 2 2 2 3 4 4 2 1 2 3 3 3 4 6 6 6 4 4 6 5 3 2 2 2 2 2 2 2 2 3 3
2 2 2 2 2 2 1 1 1 1 2 1 1 2 2 3 3 4 4 3 3 3 3 4 4 6 6 5 4 5 5 3 1 1 1 2 2 2 2 2 2 2 2
2 2 2 2 2 2 2 2 1 1 2 2 2 2 3 3 3 4 4 4 4 3 4 5 5 6 5 4 4 5 3 1 1 2 3 4 3 3 2 1 1 1 2
3 3 2 2 2 1 1 2 2 2 2 2 3 3 3 3 3 3 3 3 3 3 3 4 5 5 3 3 4 3 2 2 2 3 3 3 2 1 1 1 1 0 0
3 3 2 2 2 2 2 3 3 4 5 4 4 4 3 4 5 4 3 3 3 3 2 1 2 2 2 2 2 2 1 1 2 2 2 2 2 2 2 1 1 1 1
3 3 3 2 2 2 2 2 4 4 5 6 6 4 4 5 5 5 5 5 4 2 1 1 3 3 3 3 3 3 2 2 2 2 2 2 2 2 2 1 1 2 2
4 3 3 3 3 3 2 2 3 3 3 4 5 4 4 5 4 4 4 4 3 1 1 3 3 4 4 4 3 3 3 3 3 3 3 3 3 2 2 2 2 2 2
4 4 3 3 3 3 3 3 3 3 3 3 4 5 5 5 4 4 2 1 2 2 2 4 4 4 4 4 4 4 3 2 2 3 3 3 3 3 3 3 3 3 3
3 3 3 3 3 3 3 3 3 3 3 3 3 3 4 4 4 3 1 1 3 3 4 4 4 4 4 4 4 3 3 3 3 3 3 4 3 3 3 3 3 4 4
3 4 3 3 3 3 3 2 3 3 3 3 3 3 2 1 1 2 2 3 3 4 4 5 5 4 3 3 3 3 3 3 3 4 4 4 3 3 4 4 4 4 4
2 3 3 2 2 2 2 3 3 3 3 4 4 4 4 3 3 4 4 4 4 5 5 5 4 4 3 3 3 3 4 4 4 4 4 4 4 4 4 4 4 4 4
2 1 2 2 2 2 2 2 2 3 3 4 4 3 4 3 3 3 4 4 4 4 4 4 4 4 4 4 4 3 4 4 3 3 4 4 4 4 4 4 4 4 4
1 1 1 1 1 2 2 2 2 3 3 3 3 3 3 3 3 4 4 4 4 4 4 3 3 4 4 4 5 4 4 4 4 4 4 4 4 4 4 4 5 5 5
1 2 2 1 1 1 2 2 2 2 2 3 3 3 3 3 3 3 4 3 3 3 3 3 4 5 5 5 4 4 5 5 4 4 5 4 4 3 4 4 4 5 5
2 1 1 2 2 2 2 2 2 2 2 2 2 2 3 3 3 3 3 3 3 3 4 4 4 5 6 6 5 4 5 4 4 3 3 3 4 4 4 4 4 4 4
1 1 1 1 2 2 2 2 2 2 2 2 2 2 2 2 3 3 3 3 3 3 4 4 5 5 6 6 5 5 4 4 3 3 2 2 3 3 3 3 4 4 4
Wind_Direction
174 176 170 175 171 159 167 188 194 186 169 176 195 187 184 213 213 178 217 216 219 250 246 215 239 232 216 212 196 192 198 183 217 265 254 269 258 272 326 330 300 298 309
171 168 174 172 165 168 188 205 199 190 193 199 193 189 209 213 215 213 231 228 218 237 246 232 255 244 232 220 205 206 210 200 198 238 270 274 263 245 257 285 306 300 282
157 162 166 173 178 192 204 205 198 200 206 203 188 212 230 227 229 238 228 229 228 235 235 231 245 219 236 234 221 220 227 222 205 207 252 259 267 257 294 312 309 324 309
157 164 182 197 201 207 205 200 201 200 203 212 213 227 232 224 224 237 232 241 247 253 250 243 240 223 231 235 233 229 219 206 191 205 240 259 264 269 175 246 298 303 297
163 177 209 213 206 205 204 208 208 203 212 217 219 246 251 228 233 236 227 243 248 269 290 283 266 253 250 240 247 238 217 209 202 210 234 244 251 245 233 223 234 268 281
176 196 211 203 205 214 216 208 202 208 215 204 226 234 252 266 275 261 240 218 233 257 289 303 301 292 288 285 284 270 226 216 219 215 223 232 246 238 228 216 208 232 269
197 210 203 195 209 224 218 201 209 214 205 210 226 226 245 264 273 272 261 217 216 241 263 291 305 305 302 290 291 294 282 262 229 217 226 237 240 234 220 221 213 219 236
202 221 218 202 208 216 212 213 217 213 211 217 226 234 246 271 271 262 264 248 247 255 256 253 266 287 287 282 286 296 281 278 256 237 232 244 246 238 221 225 220 221 272
217 230 230 213 205 203 218 227 223 210 214 219 230 236 244 273 283 270 267 232 250 260 261 260 257 264 279 278 273 275 292 294 284 261 257 266 274 267 226 175 181 198 245
227 233 234 218 206 207 216 222 218 209 214 215 235 245 244 261 287 285 263 198 241 268 278 272 267 269 276 267 250 250 270 279 287 295 293 296 301 296 235 206 202 213 236
223 216 214 213 210 206 208 210 208 201 201 211 236 260 262 274 290 290 274 220 230 252 268 277 274 279 277 270 263 249 256 264 268 256 272 291 302 299 281 256 225 209 215
191 192 203 207 203 181 168 197 195 179 185 222 248 280 280 282 289 285 279 269 264 245 258 265 269 277 280 281 277 270 271 280 254 248 262 269 270 270 269 266 257 247 244
181 199 204 191 190 174 175 188 200 195 200 225 233 259 282 288 291 296 287 280 280 270 267 273 278 286 293 286 277 272 269 234 213 245 251 256 257 257 267 288 306 342 351
195 210 201 189 198 196 199 201 206 218 222 234 240 254 269 278 278 283 287 288 288 285 286 283 290 297 295 285 292 286 253 228 228 239 250 260 273 268 258 250 238 236 324
200 214 212 206 206 220 228 225 223 231 226 227 233 233 241 262 268 276 273 269 263 259 286 304 311 314 303 296 297 286 270 264 255 263 252 259 260 261 273 258 227 204 215
199 208 211 210 216 221 229 267 259 248 255 241 237 239 248 259 284 286 282 285 288 295 333 281 272 267 265 267 271 281 274 254 248 247 244 244 247 251 259 260 239 215 226
205 213 215 212 215 222 220 224 268 297 284 257 249 255 262 281 288 290 291 297 294 285 227 254 260 262 262 258 255 256 259 256 245 235 234 238 243 248 246 245 239 232 237
213 219 214 221 223 221 221 226 233 247 275 285 277 269 273 277 282 288 295 339 298 276 252 257 259 260 258 254 253 253 253 249 241 238 238 240 240 238 239 241 237 235 238
210 220 218 221 223 223 225 228 235 243 250 264 281 291 282 277 280 283 275 234 249 259 263 264 261 260 260 255 251 248 246 243 242 239 241 242 237 235 242 244 242 243 242
221 231 218 212 219 222 222 227 236 243 251 261 265 269 288 300 278 277 264 259 258 259 260 263 266 265 261 255 252 246 246 249 246 241 241 240 237 235 239 243 243 244 243
222 233 223 221 224 223 221 230 237 242 249 258 262 262 257 242 246 251 255 258 258 259 260 261 264 266 262 256 250 246 245 247 241 238 238 238 235 239 243 242 244 245 249
205 220 220 224 228 229 237 239 237 244 252 258 267 270 271 254 248 254 258 262 263 261 259 256 259 260 256 250 247 243 239 245 248 244 242 241 236 235 238 241 242 245 243
194 220 239 238 233 246 254 257 256 255 260 260 260 264 266 259 259 261 265 268 271 274 269 256 257 266 262 253 245 239 239 243 244 242 241 246 245 239 236 239 242 243 244
204 209 211 223 230 239 250 259 264 267 272 271 265 262 260 260 264 268 271 276 278 279 279 268 258 264 266 262 258 250 249 253 249 238 235 234 238 241 241 243 245 243 242
200 200 204 218 234 248 256 263 269 273 274 274 277 278 277 272 272 275 278 279 281 283 286 285 277 272 270 266 263 263 271 275 270 256 226 225 233 238 240 243 248 254 253
195 203 218 228 236 246 254 261 264 268 269 274 277 277 284 291 292 292 288 283 285 286 287 286 285 283 280 272 268 274 280 272 265 260 222 220 231 237 237 236 242 247 252
Height
1519 1520 1521 1522 1523 1524 1524 1525 1525 1525 1526 1526 1525 1525 1525 1525 1525 1525 1524 1524 1524 1524 1523 1523 1523 1523 1523 1522 1522 1522 1521 1521 1520 1519 1519 1520 1520 1520 1520 1520 1520 1519 1519
1517 1518 1519 1520 1520 1521 1522 1522 1523 1523 1523 1523 1523 1523 1523 1522 1522 1522 1521 1521 1521 1521 1521 1520 1520 1520 1520 1519 1519 1519 1518 1518 1517 1516 1516 1517 1517 1517 1517 1517 1517 1517 1517
1515 1516 1516 1517 1518 1519 1519 1520 1520 1520 1520 1520 1520 1520 1520 1520 1520 1519 1519 1519 1519 1518 1518 1518 1517 1517 1516 1516 1516 1515 1515 1515 1514 1514 1513 1514 1514 1514 1514 1514 1514 1514 1514
1513 1513 1514 1515 1516 1516 1517 1517 1517 1517 1517 1517 1518 1518 1517 1517 1517 1516 1516 1516 1516 1515 1515 1515 1514 1514 1513 1513 1513 1512 1512 1511 1511 1511 1510 1511 1511 1511 1511 1511 1511 1511 1511
1510 1511 1512 1513 1513 1514 1514 1514 1514 1514 1514 1515 1515 1515 1515 1514 1514 1514 1513 1513 1513 1512 1512 1512 1511 1511 1510 1510 1509 1509 1508 1508 1508 1507 1507 1507 1507 1508 1508 1508 1508 1508 1508
1508 1509 1509 1510 1510 1511 1511 1511 1511 1511 1511 1511 1511 1511 1511 1511 1511 1511 1510 1510 1509 1509 1509 1508 1508 1507 1507 1506 1506 1505 1505 1504 1504 1503 1503 1503 1503 1504 1504 1504 1504 1504 1503
1506 1506 1507 1507 1507 1507 1508 1508 1508 1508 1508 1508 1508 1508 1508 1508 1508 1508 1507 1507 1506 1506 1505 1505 1504 1504 1503 1503 1502 1501 1501 1500 1500 1500 1499 1499 1499 1499 1500 1499 1500 1500 1499
1504 1504 1504 1504 1504 1504 1505 1505 1505 1505 1505 1505 1505 1505 1505 1505 1505 1504 1504 1503 1502 1502 1501 1501 1501 1500 1499 1499 1497 1497 1496 1496 1496 1495 1495 1495 1495 1495 1495 1495 1495 1495 1495
1501 1501 1501 1501 1501 1501 1501 1501 1501 1502 1502 1502 1502 1502 1502 1502 1501 1501 1500 1499 1498 1498 1498 1497 1497 1496 1496 1495 1494 1493 1492 1491 1491 1491 1491 1490 1490 1490 1490 1490 1490 1490 1490
1498 1499 1499 1498 1498 1498 1498 1498 1498 1498 1498 1499 1499 1499 1498 1498 1498 1497 1496 1496 1495 1494 1494 1493 1493 1492 1492 1491 1490 1488 1487 1487 1487 1486 1486 1486 1486 1486 1486 1485 1485 1486 1485
1496 1496 1496 1495 1495 1495 1495 1495 1495 1495 1495 1495 1495 1495 1495 1494 1494 1493 1493 1492 1491 1490 1490 1489 1488 1488 1487 1487 1486 1485 1484 1483 1482 1482 1481 1481 1481 1481 1481 1481 1481 1481 1481
1493 1492 1492 1492 1492 1492 1492 1492 1492 1491 1491 1491 1491 1491 1491 1490 1490 1489 1489 1489 1488 1487 1486 1485 1484 1484 1483 1482 1481 1480 1480 1479 1478 1477 1477 1476 1476 1476 1476 1476 1476 1476 1476
1489 1489 1489 1489 1488 1488 1488 1488 1488 1488 1488 1487 1487 1487 1486 1486 1486 1486 1485 1484 1484 1483 1482 1481 1480 1479 1478 1477 1477 1476 1475 1474 1473 1473 1472 1472 1472 1472 1471 1471 1471 1471 1471
1486 1486 1486 1485 1485 1485 1485 1485 1485 1484 1484 1483 1483 1482 1482 1482 1482 1481 1481 1480 1479 1479 1478 1477 1476 1475 1474 1473 1472 1471 1470 1470 1469 1468 1468 1468 1468 1467 1467 1466 1466 1466 1466
1483 1483 1482 1482 1482 1482 1482 1482 1481 1481 1480 1480 1479 1479 1478 1477 1477 1477 1477 1476 1475 1474 1473 1472 1471 1470 1468 1467 1467 1466 1465 1465 1464 1464 1464 1463 1463 1462 1462 1462 1462 1462 1462
1480 1479 1479 1479 1478 1478 1478 1478 1477 1477 1477 1477 1476 1476 1475 1475 1474 1473 1473 1472 1471 1470 1469 1467 1466 1465 1464 1463 1462 1461 1461 1460 1460 1460 1459 1459 1458 1458 1458 1458 1458 1458 1458
1476 1475 1475 1475 1475 1475 1474 1474 1473 1474 1474 1473 1472 1472 1471 1471 1470 1469 1468 1467 1467 1466 1464 1463 1462 1461 1460 1459 1458 1457 1456 1456 1456 1456 1455 1455 1454 1454 1454 1454 1454 1454 1454
1473 1472 1472 1472 1472 1471 1471 1470 1470 1469 1469 1468 1469 1468 1467 1466 1466 1465 1464 1463 1462 1461 1459 1458 1457 1456 1455 1454 1453 1453 1452 1452 1452 1451 1451 1450 1450 1450 1449 1450 1449 1449 1450
1469 1469 1469 1469 1468 1468 1468 1467 1466 1466 1465 1464 1464 1464 1463 1462 1462 1461 1460 1458 1457 1456 1455 1454 1453 1452 1451 1450 1449 1449 1448 1447 1447 1446 1446 1446 1445 1445 1445 1445 1445 1445 1445
1465 1465 1465 1465 1464 1464 1463 1463 1462 1461 1461 1460 1459 1459 1458 1458 1456 1456 1455 1454 1453 1452 1451 1450 1449 1448 1447 1446 1445 1445 1444 1443 1442 1442 1441 1440 1440 1440 1440 1441 1441 1440 1440
1461 1461 1461 1460 1460 1459 1459 1458 1458 1457 1457 1456 1455 1455 1455 1454 1452 1451 1451 1450 1449 1448 1446 1445 1444 1443 1442 1442 1441 1440 1439 1438 1437 1437 1436 1436 1436 1435 1435 1436 1436 1436 1436
1457 1457 1456 1456 1455 1455 1455 1454 1454 1453 1452 1451 1451 1450 1450 1449 1448 1447 1446 1445 1444 1443 1442 1441 1440 1439 1438 1437 1436 1435 1434 1433 1433 1432 1431 1431 1431 1431 1431 1430 1430 1431 1431
1453 1453 1452 1452 1451 1451 1451 1450 1449 1449 1448 1447 1446 1445 1445 1444 1443 1443 1442 1441 1440 1438 1438 1437 1436 1434 1434 1432 1432 1431 1430 1429 1428 1428 1427 1426 1426 1426 1426 1426 1426 1426 1426
1449 1449 1448 1448 1447 1447 1446 1446 1445 1444 1444 1443 1442 1441 1440 1440 1439 1439 1438 1436 1435 1434 1433 1432 1431 1430 1429 1428 1427 1426 1426 1425 1424 1423 1423 1422 1421 1421 1421 1421 1421 1421 1421
1446 1445 1444 1444 1443 1443 1442 1441 1441 1440 1440 1439 1438 1437 1437 1436 1435 1434 1433 1432 1431 1430 1429 1428 1427 1426 1425 1424 1423 1422 1421 1421 1420 1419 1418 1418 1417 1417 1417 1417 1417 1417 1417
1442 1441 1441 1440 1440 1439 1438 1438 1437 1436 1436 1435 1434 1434 1433 1432 1431 1430 1429 1428 1427 1425 1424 1423 1422 1421 1420 1419 1418 1417 1416 1416 1415 1415 1414 1414 1413 1413 1413 1413 1413 1413 1412